Location: The Saddle
(36.8333°N, 80.3417°W)
Time: 07:55:22
(UTC-05:00)

A-11 Canister half - Pass Details

Date: 18 December 2023
Orbit: 1526 x 1682 km, 47.3° (Epoch: 27 February)

Event Time Altitude Azimuth Distance (km) Brightness Sun altitude
Rises 01:05:52 0° 286° (WNW) 4,899 - -73.0°
Reaches altitude 10° 01:12:09 10° 257° (WSW) 3,873 - -72.2°
Maximum altitude 01:15:02 12° 240° (WSW) 3,726 - -71.8°
Drops below altitude 10° 01:17:54 10° 222° (SW) 3,832 - -71.3°
Sets 01:24:04 0° 193° (SSW) 4,770 - -70.4°
